[[{"header":{"parameterUnit":"m.s-1","parameterCategory":1,"la1":30.2991,"la2":30.254,"lo1":-89.0895,"lo2":-89.0444,"dy":0.0017,"dx":0.0017,"nx":28,"ny":28,"refTime":"2024-05-11T21:00:00:Z","depth":0,"parameterNumber":2,"parameterNumberName":"U-component_of_WINDS"},"data":[0,0,0,0,0,0,0,0,0,0,0,0,0,0,0,0,0,0,0,0,0,0,0,0,0,0,0,0,0,0,0,0,0,0,0,0,0,0,0,0,0,0,0,0,0,0,0,0,0,0,0,0,0,0,0,0,0,0,1.6396,1.6396,0,1.6346,1.6345,1.6344,1.6281,1.628,1.6279,1.6278,1.6224,1.6224,1.6223,0,0,0,0,0,0,0,0,0,0,0,0,0,1.6434,1.6434,1.6396,1.6396,1.6395,1.6346,1.6345,1.6344,1.6281,1.628,1.6278,1.6277,1.6224,1.6224,1.6223,0,0,0,0,0,0,0,0,0,0,0,0,0,1.6404,1.6434,1.6396,1.6357,1.6353,1.6346,1.6345,1.6344,1.6281,1.628,1.6278,1.6277,1.6225,1.6224,1.6223,1.6249,0,0,1.6221,1.6221,0,0,0,0,0,0,0,0,1.6406,1.6403,1.6364,1.636,1.6356,1.6318,1.6339,1.6312,1.6281,1.6309,1.6278,1.6276,1.6257,1.6253,1.6247,1.6247,1.6245,1.6221,1.6221,1.622,1.622,0,0,0,0,0,0,0,1.6408,1.6405,1.6376,1.6363,1.6358,1.6341,1.6335,1.6333,1.6292,1.6306,1.6301,1.6296,1.6254,1.6248,1.6245,1.6244,1.6221,1.622,1.622,1.622,1.6258,1.6259,0,0,0,0,0,0,1.6416,1.6407,1.6378,1.6375,1.6378,1.6342,1.6335,1.6331,1.6292,1.6284,1.6298,1.6293,1.625,1.6246,1.6243,1.6268,1.622,1.622,1.6219,1.6257,1.6258,1.626,0,0,0,0,0,0,1.6417,1.6414,1.638,1.6389,1.6384,1.6343,1.6339,1.6331,1.6325,1.6285,1.6277,1.6299,1.6248,1.6244,1.6247,1.6266,1.6219,1.6219,1.6255,1.6257,1.6259,1.6321,0,0,0,0,0,0,1.6419,1.6415,1.6426,1.639,1.6383,1.6386,1.634,1.6331,1.6324,1.6318,1.6284,1.6277,1.6247,1.6249,1.6247,1.6264,1.6218,1.6253,1.6256,1.6258,1.6317,1.6325,1.6331,0,0,0,0,0,1.642,1.6446,1.6427,1.6424,1.6396,1.6388,1.6384,1.6349,1.6326,1.6335,1.6309,1.6278,1.6264,1.625,1.6247,1.6264,1.6252,1.6255,1.6258,1.6313,1.6323,1.6331,0,0,0,0,0,0,1.6485,1.644,1.6419,1.6433,1.6415,1.6377,1.6388,1.636,1.6347,1.6342,1.6299,1.6291,1.6299,1.6282,1.6267,1.6285,1.6253,1.6256,1.6296,1.6305,1.6312,1.6316,1.6218,0,0,0,0,0,1.6501,1.6499,1.6459,1.6476,1.6468,1.643,1.6425,1.6399,1.6378,1.6369,1.6343,1.6323,1.6313,1.6308,1.6298,1.6314,1.6304,1.6324,1.6331,1.6337,1.634,1.6344,1.6351,1.6271,1.627,1.627,0,0,1.6534,1.6509,1.651,1.6488,1.6471,1.6468,1.6423,1.6423,1.642,1.6369,1.637,1.635,1.6324,1.6333,1.6336,1.6319,1.636,1.6341,1.6347,1.6346,1.6348,1.6355,1.6362,1.6273,1.6272,1.6272,0,0,1.6591,1.6574,1.6584,1.6567,1.6541,1.6515,1.6517,1.6483,1.6468,1.6468,1.6429,1.6424,1.6409,1.6391,1.638,1.6428,1.6399,1.6426,1.6464,1.6468,1.6474,1.648,1.6494,1.65,1.6429,1.6429,1.6429,0,1.6635,1.6631,1.6593,1.6594,1.6584,1.6538,1.6546,1.6532,1.6503,1.6497,1.6478,1.6456,1.6436,1.6439,1.645,1.6444,1.6443,1.643,1.6477,1.6482,1.6486,1.6499,1.6505,1.6432,1.6432,1.6432,1.6431,0,1.6684,1.6682,1.6693,1.6666,1.6657,1.6663,1.6624,1.662,1.6594,1.6569,1.6568,1.6542,1.6523,1.6522,1.6498,1.652,1.651,1.6485,1.6452,1.6498,1.6509,1.6514,1.6437,1.6436,1.6435,1.6434,0,0,1.6783,1.6733,1.6738,1.6724,1.669,1.6686,1.6688,1.667,1.6666,1.6647,1.6646,1.6633,1.6608,1.6596,1.6569,1.6573,1.6608,1.6546,1.6545,1.6557,1.6628,1.6647,1.6653,1.6589,1.659,1.659,1.663,0,1.6833,1.6834,1.6799,1.6809,1.6804,1.6758,1.6759,1.6738,1.6714,1.6705,1.6679,1.6669,1.6639,1.663,1.6632,1.6604,1.6622,1.6601,1.6585,1.6585,1.6592,1.666,1.668,1.6718,1.6634,1.6635,1.6636,0,1.6892,1.6876,1.6886,1.6849,1.6845,1.6847,1.6826,1.6819,1.6792,1.6775,1.6759,1.6728,1.6724,1.6694,1.6687,1.6673,1.6664,1.6649,1.6649,1.6646,1.6612,1.6656,1.673,1.6735,1.6643,1.6642,1.6642,0,1.6959,1.694,1.6943,1.6932,1.689,1.6892,1.6874,1.6846,1.6837,1.6818,1.6811,1.6792,1.6781,1.6766,1.6729,1.6711,1.6726,1.6693,1.6709,1.671,1.6713,1.6714,1.6785,1.6711,1.6711,1.671,1.671,0,1.7018,1.7025,1.6972,1.6974,1.6979,1.6938,1.6944,1.6922,1.6897,1.6891,1.6851,1.6846,1.6798,1.6788,1.6759,1.6756,1.6752,1.6736,1.6727,1.6738,1.674,1.6731,1.6727,1.6712,1.6712,1.6711,1.6711,0,1.7095,1.706,1.7059,1.7019,1.7008,1.7014,1.6978,1.6977,1.695,1.6944,1.694,1.6897,1.6882,1.6844,1.6819,1.6799,1.6803,1.679,1.6813,1.6807,1.6825,1.6823,1.6892,1.6898,1.6822,1.6822,1.6823,0,1.7134,1.7138,1.7098,1.7091,1.7075,1.7066,1.7056,1.7014,1.7005,1.6973,1.6975,1.6957,1.694,1.6918,1.6883,1.6863,1.6847,1.6873,1.6844,1.6854,1.6845,1.6845,1.6843,1.6879,1.688,1.6881,1.6882,0,1.7206,1.7188,1.7175,1.7156,1.7144,1.7127,1.7107,1.7103,1.7056,1.7047,1.7032,1.7019,1.6992,1.6974,1.6948,1.6928,1.6896,1.6891,1.6893,1.6904,1.6916,1.6907,1.6828,1.689,1.6889,1.6888,1.6888,1.6888,1.7263,1.7264,1.7235,1.7221,1.7202,1.7183,1.7179,1.7151,1.7138,1.7113,1.7089,1.7075,1.7045,1.7007,1.6989,1.6976,1.696,1.6964,1.6964,1.6966,1.6969,1.6919,1.6971,1.6971,1.6971,1.697,1.697,0,1.7331,1.731,1.7298,1.7271,1.7259,1.7231,1.7207,1.7199,1.7187,1.7163,1.7146,1.7127,1.7108,1.7071,1.7049,1.7045,1.703,1.704,1.7039,1.7034,1.6986,1.6986,1.7053,1.7053,1.7053,1.7053,1.7053,1.7053,1.7365,1.7364,1.7342,1.7329,1.7308,1.7294,1.7282,1.7264,1.7244,1.7224,1.7208,1.7185,1.7154,1.7129,1.7109,1.7098,1.7091,1.7106,1.7091,1.7046,1.7038,1.7031,1.703,1.7105,1.7105,1.7139,1.714,1.714]},{"header":{"parameterUnit":"m.s-1","parameterCategory":1,"la1":30.2991,"la2":30.254,"lo1":-89.0895,"lo2":-89.0444,"dy":0.0017,"dx":0.0017,"nx":28,"ny":28,"refTime":"2024-05-11T21:00:00:Z","depth":0,"parameterNumber":3,"parameterNumberName":"V-component_of_WINDS"},"data":[0,0,0,0,0,0,0,0,0,0,0,0,0,0,0,0,0,0,0,0,0,0,0,0,0,0,0,0,0,0,0,0,0,0,0,0,0,0,0,0,0,0,0,0,0,0,0,0,0,0,0,0,0,0,0,0,0,0,6.3945,6.3946,0,6.406,6.4062,6.4063,6.4065,6.4063,6.4062,6.406,6.4172,6.4176,6.418,0,0,0,0,0,0,0,0,0,0,0,0,0,6.372,6.3724,6.3945,6.3946,6.3948,6.406,6.4062,6.4063,6.4065,6.4063,6.4061,6.406,6.4171,6.4176,6.4181,0,0,0,0,0,0,0,0,0,0,0,0,0,6.3825,6.3726,6.3944,6.3962,6.3965,6.406,6.4062,6.4064,6.4065,6.4063,6.4061,6.4059,6.4169,6.4175,6.4182,6.4265,0,0,6.4201,6.4204,0,0,0,0,0,0,0,0,6.3819,6.3833,6.3958,6.3961,6.3964,6.4046,6.4024,6.4131,6.4066,6.4027,6.406,6.4058,6.4131,6.4141,6.4167,6.427,6.4275,6.4202,6.4206,6.4209,6.421,0,0,0,0,0,0,0,6.3812,6.3828,6.399,6.396,6.3964,6.3963,6.3975,6.4044,6.4089,6.403,6.403,6.4045,6.4133,6.4161,6.417,6.4276,6.4202,6.4207,6.4211,6.4214,6.4455,6.4457,0,0,0,0,0,0,6.3802,6.3822,6.3986,6.3994,6.3885,6.3968,6.3982,6.4022,6.4089,6.4097,6.4046,6.4044,6.4151,6.4162,6.4173,6.4276,6.4209,6.4215,6.4218,6.4452,6.4455,6.4458,0,0,0,0,0,0,6.3797,6.3816,6.3982,6.3908,6.3929,6.3975,6.4019,6.4025,6.4053,6.4101,6.4109,6.4067,6.4149,6.4164,6.4243,6.428,6.4218,6.4223,6.4449,6.4453,6.4457,6.4481,0,0,0,0,0,0,6.379,6.3815,6.3847,6.3909,6.3933,6.405,6.4021,6.4029,6.4065,6.4064,6.4123,6.413,6.4149,6.4233,6.4249,6.4288,6.4228,6.4446,6.4451,6.4455,6.4477,6.4485,6.4492,0,0,0,0,0,6.3782,6.3848,6.3849,6.3869,6.3975,6.4053,6.4066,6.4088,6.4068,6.4101,6.4132,6.4128,6.4274,6.4241,6.4259,6.43,6.4444,6.445,6.4455,6.4474,6.4484,6.4492,0,0,0,0,0,0,6.3786,6.3856,6.3858,6.3946,6.3994,6.4053,6.4095,6.4098,6.415,6.4146,6.417,6.4183,6.4261,6.4289,6.4251,6.4385,6.4356,6.4366,6.4364,6.4374,6.4381,6.4373,6.4234,0,0,0,0,0,6.3798,6.3857,6.3914,6.3985,6.401,6.4049,6.4083,6.4096,6.4146,6.4165,6.4202,6.4248,6.4305,6.4341,6.4395,6.4482,6.4495,6.4519,6.4527,6.4533,6.454,6.4589,6.4601,6.4477,6.4477,6.4476,0,0,6.3821,6.3867,6.3902,6.3988,6.4026,6.4085,6.4065,6.4128,6.4171,6.4174,6.4251,6.428,6.4333,6.4417,6.4455,6.4442,6.4578,6.454,6.4544,6.4549,6.4596,6.4608,6.4618,6.448,6.448,6.4479,0,0,6.3894,6.3935,6.4,6.404,6.41,6.4126,6.4142,6.4202,6.4222,6.43,6.4304,6.4355,6.4452,6.449,6.4522,6.4614,6.4612,6.4631,6.4669,6.4717,6.4727,6.4735,6.4768,6.478,6.4638,6.4638,6.4638,0,6.3915,6.4006,6.4032,6.4097,6.4134,6.4143,6.4208,6.4245,6.4319,6.4344,6.4329,6.4452,6.4488,6.4581,6.4604,6.463,6.4648,6.4623,6.4724,6.4733,6.4741,6.4773,6.4785,6.464,6.464,6.464,6.464,0,6.4029,6.4092,6.4137,6.4212,6.4254,6.4319,6.4354,6.4394,6.4404,6.4431,6.4512,6.4557,6.4621,6.4644,6.4654,6.4739,6.473,6.4719,6.469,6.4754,6.4784,6.4797,6.4643,6.4642,6.4642,6.4641,0,0,6.4104,6.4196,6.4211,6.4246,6.4315,6.4363,6.4428,6.4494,6.4528,6.4579,6.4634,6.4717,6.4709,6.4746,6.476,6.4802,6.4872,6.4786,6.4788,6.48,6.497,6.4977,6.4991,6.4872,6.4875,6.4877,6.4966,0,6.4184,6.4303,6.433,6.443,6.4489,6.45,6.4557,6.4604,6.4632,6.4685,6.4715,6.4774,6.4758,6.478,6.4822,6.4855,6.4906,6.4849,6.4922,6.4925,6.4908,6.5006,6.5014,6.5095,6.4977,6.4979,6.4981,0,6.4293,6.435,6.4458,6.4521,6.4547,6.4598,6.4661,6.4712,6.4767,6.4784,6.4827,6.4838,6.4905,6.4875,6.4968,6.4928,6.496,6.4981,6.4984,6.4991,6.4956,6.5015,6.5122,6.5134,6.5,6.4998,6.4997,0,6.4337,6.4441,6.452,6.4549,6.4625,6.466,6.4693,6.4746,6.4784,6.484,6.4865,6.4926,6.496,6.5007,6.5034,6.5009,6.5125,6.5096,6.514,6.514,6.5163,6.5161,6.5275,6.5185,6.5185,6.5184,6.5184,0,6.4423,6.4488,6.4541,6.4589,6.4663,6.4694,6.4765,6.4798,6.4845,6.4899,6.4911,6.4961,6.4994,6.5049,6.507,6.5144,6.5159,6.5174,6.5179,6.5173,6.5171,6.5193,6.5188,6.5188,6.5187,6.5186,6.5186,0,6.4484,6.4522,6.4609,6.4675,6.4693,6.4745,6.48,6.4847,6.4877,6.4945,6.4962,6.5008,6.5073,6.5105,6.5185,6.52,6.5284,6.5285,6.5266,6.5268,6.531,6.5306,6.5442,6.5462,6.5358,6.5359,6.536,0,6.4536,6.4587,6.466,6.4699,6.4733,6.4794,6.4835,6.4868,6.4909,6.4977,6.5016,6.5082,6.5137,6.524,6.5279,6.5341,6.5344,6.5388,6.5353,6.5346,6.5344,6.5341,6.5346,6.5393,6.5394,6.5395,6.5395,0,6.4624,6.4642,6.4701,6.4768,6.4817,6.4871,6.4923,6.4953,6.4994,6.504,6.5109,6.5152,6.5236,6.5301,6.5367,6.5399,6.5404,6.5407,6.542,6.5414,6.5401,6.5409,6.5282,6.5403,6.5402,6.5401,6.5401,6.5401,6.4682,6.4729,6.4789,6.4855,6.4899,6.4949,6.4997,6.5034,6.5092,6.5165,6.518,6.5253,6.5308,6.5397,6.5431,6.5488,6.5478,6.5497,6.5502,6.5506,6.5509,6.5393,6.55,6.5499,6.5499,6.5499,6.5499,0,6.4771,6.4811,6.4872,6.4947,6.5,6.5004,6.5063,6.5105,6.517,6.5222,6.5277,6.5356,6.5421,6.5467,6.5533,6.5569,6.5573,6.5585,6.5582,6.559,6.5513,6.5495,6.5581,6.5581,6.5581,6.5581,6.5581,6.5581,6.4823,6.4903,6.4928,6.503,6.5069,6.5142,6.5176,6.5222,6.5264,6.5353,6.5408,6.5439,6.5488,6.5558,6.5618,6.563,6.5653,6.5665,6.5677,6.5604,6.5595,6.5587,6.557,6.567,6.567,6.5749,6.5749,6.575]}]]